Regional Weather Roundup
Issued by NWS San Angelo, TX

Home | Current Version | Previous Version | Text Only | Print | Product List | Glossary On
Versions: 1 2 3 4 5 6 7 8 9 10 11 12 13 14 15 16 17 18 19 20 21 22 23 24 25 26 27 28 29 30 31 32 33 34 35 36 37 38 39 40 41 42 43 44 45 46 47 48 49 50
000
ASUS44 KSJT 060911
RWRSJT
WEST CENTRAL TEXAS REGIONAL WEATHER ROUNDUP
NATIONAL WEATHER SERVICE SAN ANGELO TX
400 AM CDT FRI MAY 06 2016

NOTE: "FAIR" INDICATES FEW OR NO CLOUDS BELOW 12,000 FEET WITH NO
SIGNIFICANT WEATHER AND/OR OBSTRUCTIONS TO VISIBILITY.

TXZ049-054-064>066-071>073-076>078-098-099-113-114-127-128-139-140-
154-155-168>170-061000
...LOCATIONS ACROSS WEST CENTRAL TEXAS...

CITY           SKY/WX    TMP DP  RH WIND       PRES   REMARKS
SAN ANGELO     CLEAR     59  48  67 S6        30.04S
ABILENE        CLEAR     61  53  75 SE10      30.04F
DYESS AFB      CLEAR     59  54  82 SE10      30.03S
JUNCTION       CLEAR     53  47  79 NW3       30.06S
SWEETWATER     CLEAR     60  48  64 SE9       30.07F
BROWNWOOD      CLEAR     55  55 100 CALM      30.06R FOG
COLEMAN        SUNNY     59  52  76 CALM      30.06S
SONORA         CLEAR     52  46  82 CALM      30.09F
OZONA          FAIR      55  41  58 SE6       30.07S
BRADY          NOT AVBL
$$

TEXAS PANHANDLE/OKLAHOMA PANHANDLE

CITY           SKY/WX    TMP DP  RH WIND       PRES   REMARKS
AMARILLO       CLEAR     54  46  74 SE15      30.05F
BORGER         CLEAR     62  47  57 S15G22    30.03R
CANADIAN       CLEAR     58  47  68 CALM      30.05R
DALHART        CLEAR     51  43  74 S10       30.05F
DUMAS          SUNNY     52  44  75 S10       30.03F
GUYMON         NOT AVBL
HEREFORD       CLOUDY    55  36  49 S3        30.06F
PAMPA          SUNNY     60  48  64 S16G22    30.06S
PERRYTON       CLEAR     57  48  72 S12       30.03S
$$

SOUTHERN PANHANDLE/SOUTH PLAINS/ROLLING PLAINS

CITY           SKY/WX    TMP DP  RH WIND       PRES   REMARKS
LUBBOCK        PTCLDY    65  40  39 S15G25    30.04F
SNYDER           N/A     60  47  62 S7        30.05F
CHILDRESS      CLEAR     58  47  66 S10       30.04S
SEMINOLE       CLOUDY    54  36  50 CALM      30.05F
$$

PERMIAN BASIN

CITY           SKY/WX    TMP DP  RH WIND       PRES   REMARKS
MIDLAND        PTCLDY    62  40  44 SE8       30.03F
ODESSA         CLOUDY    63  37  38 SE9       30.04S
WINK           CLOUDY    64  33  31 SE13      29.99F
$$

FAR WEST/SOUTHWEST MOUNTAINS/TRANS PECOS

CITY           SKY/WX    TMP DP  RH WIND       PRES   REMARKS
ALPINE         SUNNY     65  32  29 S13       30.12S
DRYDEN           N/A     63  37  38 NE6       30.01S
EL PASO        PTCLDY    71  23  16 SE12      29.92F
FORT STOCKTON  CLEAR     69  35  28 SE15      30.00F
GUADALUPE PASS CLOUDY    62  20  19 NE15      30.09S
MARFA          CLEAR     46  26  45 N6        30.11F
PECOS          SUNNY     62  31  30 E13       29.98S
$$

DALLAS/FORT WORTH METROPLEX

CITY           SKY/WX    TMP DP  RH WIND       PRES   REMARKS
DFW AIRPORT    CLEAR     62  50  64 CALM      30.03R
FTW MEACHAM    CLEAR     60  55  83 CALM      30.03S
DAL-EXECUTIVE  CLEAR     57  47  69 SW3       30.03R
GRAND PRAIRIE  CLEAR     63  49  61 SW3       30.05R
ADDISON        CLEAR     65  52  62 E3        30.05S
MESQUITE       SUNNY     56  56  99 CALM      30.04R
LANCASTER      SUNNY     54  50  85 CALM      30.04S
$$

NORTH CENTRAL TEXAS

CITY           SKY/WX    TMP DP  RH WIND       PRES   REMARKS
SHRMAN/DENISON MOSUNNY   51  45  79 CALM      30.05S
GAINESVILLE    CLEAR     54  49  82 CALM      30.06F
BRIDGEPORT     SUNNY     51  51 100 CALM      30.06S
DENTON         CLEAR     50  49  96 N5        30.04S
WAXAHACHIE     SUNNY     55  50  82 CALM      30.05R
GRANBURY       SUNNY     54  50  86 CALM      30.05F
$$

WESTERN NORTH TEXAS

CITY           SKY/WX    TMP DP  RH WIND       PRES   REMARKS
WICHITA FALLS  CLEAR     59  48  67 SE6       30.04S
VERNON         SUNNY     61  46  58 S3        30.05R
BRECKENRIDGE   SUNNY     61  51  68 CALM      30.05R
COMANCHE       CLEAR     60  52  73 S5        30.05R
$$

CENTRAL AND SOUTH CENTRAL TEXAS

CITY           SKY/WX    TMP DP  RH WIND       PRES   REMARKS
AUSTIN/BERGSTM CLEAR     57  56  96 CALM      30.03S
WACO           CLEAR     52  49  89 NW3       30.04R
HILLSBORO      SUNNY     54  49  85 CALM      30.04R
TEMPLE         CLEAR     55  54  96 NW3       30.04S
KILLEEN-GRAY   CLEAR     60  52  73 SE1       30.03S
FORT HOOD      CLEAR     64  51  61 E1        30.02S
GEORGETOWN     CLEAR     54  50  87 W3        30.04S
LAGO VISTA     FAIR      64  53  68 E6        30.05F
SAN MARCOS     CLEAR     57  55  94 W5        30.04S
NEW BRAUNFELS  CLEAR     58  55  90 N3        30.01S
RANDOLPH AFB   CLEAR     59  57  93 N3        30.02S
SAN ANTONIO    CLEAR     62  55  77 NW3       30.03S
STINSON        CLEAR     62  54  74 CALM      30.00S
PLEASANTON     NOT AVBL
LA GRANGE        N/A     58  56  92 CALM      30.02R
GIDDINGS       SUNNY     57  54  89 CALM      30.07R
$$

EAST TEXAS

CITY           SKY/WX    TMP DP  RH WIND       PRES   REMARKS
PARIS          CLEAR     55  43  62 N3        30.04R
CLARKSVILLE    NOT AVBL
TYLER          CLEAR     57  50  77 CALM      30.02S
LONGVIEW       CLEAR     55  51  86 CALM      30.01F
PALESTINE      SUNNY     53  51  94 CALM      30.03S
NACOGDOCHES    CLEAR     50  48  93 CALM      30.01S
$$

TEXAS HILL COUNTRY AND EDWARDS PLATEAU

CITY           SKY/WX    TMP DP  RH WIND       PRES   REMARKS
LLANO          SUNNY     55  54  94 CALM      30.07S
HORSESHOE BAY  FAIR      55  53  92 CALM      30.04F
KERRVILLE      CLEAR     54  51  91 CALM      30.07R
FREDERICKSBRG  CLEAR     53  49  86 CALM      30.06S
ROCKSPRINGS    SUNNY     61  45  55 CALM      30.09R
HONDO          CLEAR     58  52  80 NE3       30.05R
UVALDE         SUNNY     58  50  75 NE6       30.03S
DEL RIO        CLEAR     63  49  60 E5        30.00S
$$

SOUTHEAST TEXAS

CITY           SKY/WX    TMP DP  RH WIND       PRES   REMARKS
COLLEGE STN    CLEAR     62  50  64 NE6       30.02S
CALDWELL       SUNNY     61  48  63 CALM      30.05S
CROCKETT       SUNNY     52  50  93 CALM      30.05S
BRENHAM        CLEAR     60  52  73 CALM      30.02S
HUNTSVILLE     CLEAR     57  52  83 CALM      30.02R
CONROE         CLEAR     52  51  97 CALM      30.02R
HOUSTON BUSH   PTCLDY    59  53  80 CALM      30.01R
HOUSTON HOBBY  CLEAR     64  53  67 CALM      29.99S
PERLAND        CLEAR     61  55  81 CALM      30.01S
WHARTON        SUNNY     56  52  86 CALM      30.01S
$$

THE UPPER TEXAS COAST

CITY           SKY/WX    TMP DP  RH WIND       PRES   REMARKS
ORANGE         MOSUNNY   54  52  92 CALM      30.01S
PORT ARTHUR    PTCLDY    58  55  90 CALM      29.99F
GALVESTON      CLEAR     68  62  81 N9        30.00S
ANGLETON       CLEAR     57  55  93 CALM      30.00R
BAY CITY       SUNNY     58  56  92 CALM      30.00R
$$

TEXAS COASTAL BEND, RIO GRANDE PLAINS DEEP SOUTH TEXAS

CITY           SKY/WX    TMP DP  RH WIND       PRES   REMARKS
VICTORIA       CLEAR     59  55  87 N5        30.01S
BEEVILLE       FAIR      58  54  84 NE3       30.01R
ROCKPORT       PTCLDY    65  59  81 SW5       29.99S
PORT ARANSAS   MOSUNNY   70  67  91 NW3       29.99F
PORT LAVACA    SUNNY     65  57  74 NE6       30.00S
CORPUS CHRISTI PTCLDY    66  59  78 CALM      30.00S
KINGSVILLE NAS CLEAR     58  58 100 NW3       29.99F
COTULLA        CLEAR     65  48  54 SE5       30.01S
LAREDO         CLOUDY    68  56  65 E6        30.00S
BROWNSVILLE    CLEAR     64  63  96 SW3       30.00S
PORT ISABEL    PTCLDY    65  63  93 SW3       29.98F
HEBBRONVILLE   CLOUDY    64  55  71 W3        30.02S
MCALLEN        CLEAR     66  60  81 SE6       29.99S
WESLACO        CLEAR     67  62  82 S5        29.99S
FALFURRIAS     MOSUNNY   64  56  74 CALM      29.99S
EDINBURG       SUNNY     64  58  82 CALM      29.99F
$$



USA.gov is the U.S. government's official web portal to all federal, state and local government web resources and services.